TimeCST,TemperatureF,Dew PointF,Humidity,Sea Level PressureIn,VisibilityMPH,Wind Direction,Wind SpeedMPH,Gust SpeedMPH,PrecipitationIn,Events,Conditions,WindDirDegrees,DateUTC
12:52 AM,37.9,37.9,100,29.79,0.2,SE,8.1,-,N/A,Fog,Fog,130,2013-01-11 06:52:00
1:52 AM,39.0,39.0,100,29.74,0.2,East,3.5,-,N/A,Fog,Fog,90,2013-01-11 07:52:00
2:52 AM,37.9,37.0,97,29.73,0.2,SE,6.9,-,N/A,Fog,Fog,140,2013-01-11 08:52:00
3:37 AM,37.4,37.4,100,29.70,0.2,SSE,6.9,-,N/A,Fog,Fog,160,2013-01-11 09:37:00
3:45 AM,39.2,39.2,100,29.70,0.2,South,8.1,-,N/A,Fog,Fog,190,2013-01-11 09:45:00
3:52 AM,39.0,39.0,100,29.72,0.2,SSW,4.6,-,N/A,Fog,Fog,210,2013-01-11 09:52:00
4:52 AM,37.0,37.0,100,29.72,0.2,West,5.8,-,0.01,Fog,Fog,260,2013-01-11 10:52:00
6:38 AM,39.2,39.2,100,29.70,0.2,SW,9.2,-,N/A,Fog,Fog,230,2013-01-11 12:38:00
6:52 AM,41.0,39.9,96,29.73,0.2,SW,10.4,-,N/A,Fog,Fog,220,2013-01-11 12:52:00
7:02 AM,41.0,41.0,100,29.71,0.2,SW,8.1,-,N/A,Fog,Fog,220,2013-01-11 13:02:00
7:43 AM,41.0,41.0,100,29.72,0.2,SW,8.1,-,N/A,Fog,Fog,220,2013-01-11 13:43:00
7:52 AM,42.1,41.0,96,29.74,0.2,SW,10.4,-,N/A,Fog,Fog,220,2013-01-11 13:52:00
8:44 AM,42.8,42.8,100,29.74,0.2,SSW,10.4,-,N/A,Fog,Fog,200,2013-01-11 14:44:00
8:52 AM,43.0,43.0,100,29.75,0.2,SSW,12.7,-,N/A,Fog,Fog,200,2013-01-11 14:52:00
9:45 AM,44.6,44.6,100,29.74,0.8,South,10.4,-,N/A,,Mist,190,2013-01-11 15:45:00
9:52 AM,45.0,45.0,100,29.75,1.5,South,12.7,-,N/A,,Overcast,190,2013-01-11 15:52:00
10:00 AM,44.6,44.6,100,29.74,2.5,South,11.5,-,N/A,,Overcast,190,2013-01-11 16:00:00
10:52 AM,46.0,45.0,96,29.74,2.5,South,10.4,-,N/A,,Overcast,190,2013-01-11 16:52:00
11:52 AM,46.9,45.0,93,29.71,2.0,South,12.7,-,N/A,,Overcast,190,2013-01-11 17:52:00
12:47 PM,48.2,46.4,93,29.67,3.0,South,13.8,-,N/A,,Overcast,170,2013-01-11 18:47:00
12:52 PM,48.0,46.0,93,29.68,3.0,South,12.7,-,N/A,,Overcast,180,2013-01-11 18:52:00
1:42 PM,50.0,46.4,87,29.64,5.0,South,15.0,-,N/A,,Overcast,170,2013-01-11 19:42:00
1:50 PM,50.0,46.4,87,29.64,5.0,South,13.8,-,N/A,,Mist,170,2013-01-11 19:50:00
1:52 PM,50.0,46.0,86,29.65,5.0,South,13.8,-,N/A,,Mist,170,2013-01-11 19:52:00
2:52 PM,52.0,46.9,83,29.64,8.0,South,18.4,25.3,N/A,,Clear,170,2013-01-11 20:52:00
3:52 PM,51.1,46.9,86,29.64,9.0,South,15.0,24.2,N/A,,Clear,170,2013-01-11 21:52:00
4:52 PM,51.1,46.9,86,29.64,10.0,South,18.4,26.5,N/A,,Clear,180,2013-01-11 22:52:00
5:52 PM,52.0,46.0,80,29.62,10.0,South,17.3,25.3,N/A,,Clear,180,2013-01-11 23:52:00
6:52 PM,52.0,46.0,80,29.61,10.0,South,20.7,27.6,N/A,,Clear,170,2013-01-12 00:52:00
7:52 PM,53.1,45.0,74,29.62,10.0,South,24.2,31.1,N/A,,Clear,180,2013-01-12 01:52:00
8:52 PM,52.0,45.0,77,29.63,10.0,South,19.6,26.5,N/A,,Clear,180,2013-01-12 02:52:00
9:52 PM,52.0,45.0,77,29.62,10.0,South,19.6,33.4,N/A,,Clear,190,2013-01-12 03:52:00
10:52 PM,52.0,44.1,74,29.64,10.0,South,19.6,-,N/A,,Clear,190,2013-01-12 04:52:00
11:52 PM,52.0,44.1,74,29.64,10.0,South,19.6,27.6,N/A,,Clear,190,2013-01-12 05:52:00